Time,TemperatureF,DewpointF,PressureIn,WindDirection,WindDirectionDegrees,WindSpeedMPH,WindSpeedGustMPH,Humidity,HourlyPrecipIn,Conditions,Clouds,dailyrainin,SolarRadiationWatts/m^2,SoftwareType,DateUTC
2013-03-22 00:03:00,34.5,29.6,29.80,WNW,292,13.8,13.8,82,0.00,CLR,,0.50,0.0,WeatherDisplay:10.37,2013-03-21 23:03:00,
2013-03-22 00:08:00,34.5,29.6,29.80,WNW,292,11.5,11.5,82,0.00,CLR,,0.50,0.0,WeatherDisplay:10.37,2013-03-21 23:08:00,
2013-03-22 00:13:00,34.5,29.6,29.80,WNW,292,15.0,15.0,82,0.00,CLR,,0.50,0.0,WeatherDisplay:10.37,2013-03-21 23:13:00,
2013-03-22 00:18:00,34.5,29.9,29.80,NNW,338,17.5,17.5,83,0.00,CLR,,0.50,0.0,WeatherDisplay:10.37,2013-03-21 23:18:00,
2013-03-22 00:23:00,34.3,29.7,29.80,NNW,338,12.1,12.1,83,0.00,CLR,,0.50,0.0,WeatherDisplay:10.37,2013-03-21 23:23:00,
2013-03-22 00:28:00,34.3,29.7,29.80,WNW,292,12.7,12.7,83,0.00,CLR,,0.50,0.0,WeatherDisplay:10.37,2013-03-21 23:28:00,
2013-03-22 00:33:00,34.3,29.7,29.80,WNW,292,12.7,12.7,83,0.00,CLR,,0.50,0.0,WeatherDisplay:10.37,2013-03-21 23:33:00,
2013-03-22 00:38:00,34.2,29.5,29.80,NNW,338,13.2,13.2,83,0.00,CLR,,0.50,0.0,WeatherDisplay:10.37,2013-03-21 23:38:00,
2013-03-22 00:43:00,34.2,29.5,29.80,WNW,292,9.2,9.2,83,0.00,CLR,,0.50,0.0,WeatherDisplay:10.37,2013-03-21 23:43:00,
2013-03-22 00:48:00,34.0,29.4,29.80,NNW,338,12.7,12.7,83,0.00,CLR,,0.50,0.0,WeatherDisplay:10.37,2013-03-21 23:48:00,
2013-03-22 00:53:00,34.0,29.4,29.80,NNW,338,12.7,12.7,83,0.00,CLR,,0.50,0.0,WeatherDisplay:10.37,2013-03-21 23:53:00,
2013-03-22 00:58:00,34.0,29.1,29.80,NNW,338,15.0,15.0,82,0.00,CLR,,0.50,0.0,WeatherDisplay:10.37,2013-03-21 23:58:00,
2013-03-22 01:03:00,34.0,29.4,29.80,NNW,338,21.9,21.9,83,0.00,CLR,,0.50,0.0,WeatherDisplay:10.37,2013-03-22 00:03:00,
2013-03-22 01:08:00,34.0,29.1,29.80,NNW,338,15.4,15.4,82,0.00,CLR,,0.50,0.0,WeatherDisplay:10.37,2013-03-22 00:08:00,
2013-03-22 01:13:00,34.0,29.1,29.80,NNE,22,13.2,13.2,82,0.00,CLR,,0.50,0.0,WeatherDisplay:10.37,2013-03-22 00:13:00,
2013-03-22 01:18:00,33.8,28.9,29.80,WNW,292,9.2,9.7,82,0.00,CLR,,0.50,0.0,WeatherDisplay:10.37,2013-03-22 00:18:00,
2013-03-22 01:23:00,33.8,28.6,29.80,NNW,338,13.8,13.8,81,0.00,CLR,,0.50,0.0,WeatherDisplay:10.37,2013-03-22 00:23:00,
2013-03-22 01:28:00,33.8,28.3,29.80,NW,315,16.1,16.1,80,0.00,CLR,,0.50,0.0,WeatherDisplay:10.37,2013-03-22 00:28:00,
2013-03-22 01:33:00,34.0,28.5,29.80,NNW,338,10.4,10.4,80,0.00,CLR,,0.50,0.0,WeatherDisplay:10.37,2013-03-22 00:33:00,
2013-03-22 01:38:00,33.8,28.0,29.80,WNW,292,15.0,15.0,79,0.00,CLR,,0.50,0.0,WeatherDisplay:10.37,2013-03-22 00:38:00,
2013-03-22 01:43:00,33.8,28.0,29.80,NNE,22,16.1,16.1,79,0.00,CLR,,0.50,0.0,WeatherDisplay:10.37,2013-03-22 00:43:00,
2013-03-22 01:48:00,33.8,28.0,29.80,WNW,292,12.7,12.7,79,0.00,CLR,,0.50,0.0,WeatherDisplay:10.37,2013-03-22 00:48:00,
2013-03-22 01:53:00,33.8,28.0,29.80,NNW,338,17.3,17.3,79,0.00,CLR,,0.50,0.0,WeatherDisplay:10.37,2013-03-22 00:53:00,
2013-03-22 01:58:00,33.8,28.0,29.80,NW,315,19.6,19.6,79,0.00,CLR,,0.50,0.0,WeatherDisplay:10.37,2013-03-22 00:58:00,
2013-03-22 02:03:00,33.8,28.0,29.80,ENE,68,17.3,17.3,79,0.00,CLR,,0.50,0.0,WeatherDisplay:10.37,2013-03-22 01:03:00,
2013-03-22 02:08:00,33.8,27.7,29.80,NNW,338,10.4,10.4,78,0.00,CLR,,0.50,0.0,WeatherDisplay:10.37,2013-03-22 01:08:00,
2013-03-22 02:13:00,33.6,27.8,29.80,NNW,338,12.7,12.7,79,0.00,CLR,,0.50,0.0,WeatherDisplay:10.37,2013-03-22 01:13:00,
2013-03-22 02:18:00,33.6,27.5,29.80,WNW,292,15.0,15.0,78,0.00,CLR,,0.50,0.0,WeatherDisplay:10.37,2013-03-22 01:18:00,
2013-03-22 02:23:00,33.6,27.5,29.80,WNW,292,6.9,8.7,78,0.00,CLR,,0.50,0.0,WeatherDisplay:10.37,2013-03-22 01:23:00,
2013-03-22 02:28:00,33.6,27.5,29.80,NW,315,8.5,8.7,78,0.00,CLR,,0.50,0.0,WeatherDisplay:10.37,2013-03-22 01:28:00,
2013-03-22 02:33:00,33.6,27.5,29.80,NNE,22,12.5,12.5,78,0.00,CLR,,0.50,0.0,WeatherDisplay:10.37,2013-03-22 01:33:00,
2013-03-22 02:38:00,33.6,27.2,29.80,WNW,292,8.1,10.5,77,0.00,CLR,,0.50,0.0,WeatherDisplay:10.37,2013-03-22 01:38:00,
2013-03-22 02:43:00,33.6,27.2,29.80,NNW,338,10.4,10.4,77,0.00,CLR,,0.50,0.0,WeatherDisplay:10.37,2013-03-22 01:43:00,
2013-03-22 02:48:00,33.6,27.2,29.80,NNW,338,10.4,10.4,77,0.00,CLR,,0.50,0.0,WeatherDisplay:10.37,2013-03-22 01:48:00,
2013-03-22 02:53:00,33.6,27.2,29.80,NNW,338,9.2,9.2,77,0.00,CLR,,0.50,0.0,WeatherDisplay:10.37,2013-03-22 01:53:00,
2013-03-22 02:58:00,33.4,27.0,29.80,NNE,22,12.5,12.5,77,0.00,CLR,,0.50,0.0,WeatherDisplay:10.37,2013-03-22 01:58:00,
2013-03-22 03:03:00,33.6,27.2,29.80,WNW,292,9.2,9.2,77,0.00,CLR,,0.50,0.0,WeatherDisplay:10.37,2013-03-22 02:03:00,
2013-03-22 03:08:00,33.4,26.7,29.80,NNE,22,11.5,11.5,76,0.00,CLR,,0.50,0.0,WeatherDisplay:10.37,2013-03-22 02:08:00,
2013-03-22 03:13:00,33.4,26.7,29.80,NNW,338,15.4,15.4,76,0.00,CLR,,0.50,0.0,WeatherDisplay:10.37,2013-03-22 02:13:00,
2013-03-22 03:18:00,33.4,26.7,29.80,NNW,338,15.4,15.4,76,0.00,CLR,,0.50,0.0,WeatherDisplay:10.37,2013-03-22 02:18:00,
2013-03-22 03:23:00,33.4,26.7,29.80,NNW,338,15.4,15.4,76,0.00,CLR,,0.50,0.0,WeatherDisplay:10.37,2013-03-22 02:23:00,
2013-03-22 03:28:00,33.4,26.7,29.80,WNW,292,10.4,10.4,76,0.00,CLR,,0.50,0.0,WeatherDisplay:10.37,2013-03-22 02:28:00,
2013-03-22 03:33:00,33.4,26.7,29.80,NNW,338,8.5,12.1,76,0.00,CLR,,0.50,0.0,WeatherDisplay:10.37,2013-03-22 02:33:00,
2013-03-22 03:38:00,33.4,26.7,29.80,NNW,338,11.5,11.5,76,0.00,CLR,,0.50,0.0,WeatherDisplay:10.37,2013-03-22 02:38:00,
2013-03-22 03:43:00,33.4,26.4,29.80,NNW,338,19.4,19.4,75,0.00,CLR,,0.50,0.0,WeatherDisplay:10.37,2013-03-22 02:43:00,
2013-03-22 03:48:00,33.4,26.7,29.80,NNW,338,19.6,19.6,76,0.00,CLR,,0.50,0.0,WeatherDisplay:10.37,2013-03-22 02:48:00,
2013-03-22 03:53:00,33.4,26.7,29.80,NNW,338,19.6,19.6,76,0.00,CLR,,0.50,0.0,WeatherDisplay:10.37,2013-03-22 02:53:00,
2013-03-22 03:59:00,33.3,26.5,29.80,NNW,338,19.6,19.6,76,0.00,CLR,,0.50,0.0,WeatherDisplay:10.37,2013-03-22 02:59:00,
2013-03-22 04:04:00,33.3,26.5,29.80,NNW,338,11.5,11.5,76,0.00,CLR,,0.50,0.0,WeatherDisplay:10.37,2013-03-22 03:04:00,
2013-03-22 04:09:00,33.3,26.5,29.80,NNW,338,10.7,10.7,76,0.00,CLR,,0.50,0.0,WeatherDisplay:10.37,2013-03-22 03:09:00,
2013-03-22 04:14:00,33.3,26.5,29.80,NNE,22,11.5,11.5,76,0.00,CLR,,0.50,0.0,WeatherDisplay:10.37,2013-03-22 03:14:00,
2013-03-22 04:19:00,33.3,26.5,29.80,WNW,292,12.7,12.7,76,0.00,CLR,,0.50,0.0,WeatherDisplay:10.37,2013-03-22 03:19:00,
2013-03-22 04:24:00,33.3,26.5,29.80,WNW,292,12.7,12.7,76,0.00,CLR,,0.50,0.0,WeatherDisplay:10.37,2013-03-22 03:24:00,
2013-03-22 04:29:00,33.3,26.5,29.80,NW,315,12.7,12.7,76,0.00,CLR,,0.50,0.0,WeatherDisplay:10.37,2013-03-22 03:29:00,
2013-03-22 04:34:00,33.3,26.5,29.80,West,270,12.8,12.8,76,0.00,CLR,,0.50,0.0,WeatherDisplay:10.37,2013-03-22 03:34:00,
2013-03-22 04:39:00,33.3,26.5,29.83,West,270,12.8,12.8,76,0.00,CLR,,0.50,0.0,WeatherDisplay:10.37,2013-03-22 03:39:00,
2013-03-22 04:44:00,33.1,26.3,29.83,NNW,338,11.5,11.5,76,0.00,CLR,,0.50,0.0,WeatherDisplay:10.37,2013-03-22 03:44:00,
2013-03-22 04:49:00,33.1,26.3,29.83,NNW,338,11.5,11.5,76,0.00,CLR,,0.50,0.0,WeatherDisplay:10.37,2013-03-22 03:49:00,
2013-03-22 04:54:00,33.1,26.3,29.77,NNW,338,11.5,11.5,76,0.00,CLR,,0.50,0.0,WeatherDisplay:10.37,2013-03-22 03:54:00,
2013-03-22 04:59:00,33.3,26.5,29.77,NNW,338,11.5,11.5,76,0.00,CLR,,0.50,0.0,WeatherDisplay:10.37,2013-03-22 03:59:00,
2013-03-22 05:00:00,33.3,26.5,29.77,NNW,338,11.5,11.5,76,0.00,CLR,,0.50,0.0,WeatherDisplay:10.37,2013-03-22 04:00:00,
2013-03-22 05:02:00,33.1,26.3,29.77,NNW,338,11.5,11.5,76,0.00,CLR,,0.50,0.0,WeatherDisplay:10.37,2013-03-22 04:02:00,
2013-03-22 05:07:00,33.1,26.3,29.80,NNW,338,10.4,10.4,76,0.00,CLR,,0.50,0.0,WeatherDisplay:10.37,2013-03-22 04:07:00,
2013-03-22 05:12:00,33.3,26.5,29.80,NNW,338,8.1,8.1,76,0.00,OVC,,0.50,0.0,WeatherDisplay:10.37,2013-03-22 04:12:00,
2013-03-22 05:17:00,33.1,26.3,29.80,NNW,338,10.5,10.5,76,0.00,OVC,,0.50,0.0,WeatherDisplay:10.37,2013-03-22 04:17:00,
2013-03-22 05:22:00,33.1,26.3,29.80,WNW,292,8.5,9.4,76,0.00,OVC,,0.50,0.0,WeatherDisplay:10.37,2013-03-22 04:22:00,
2013-03-22 05:27:00,33.1,26.3,29.80,WNW,292,8.5,9.4,76,0.00,OVC,,0.50,0.0,WeatherDisplay:10.37,2013-03-22 04:27:00,
2013-03-22 05:32:00,33.1,26.3,29.80,WNW,292,11.5,11.5,76,0.00,OVC,,0.50,0.0,WeatherDisplay:10.37,2013-03-22 04:32:00,
2013-03-22 05:37:00,33.1,26.3,29.80,NNW,338,10.4,10.4,76,0.00,OVC,,0.50,0.0,WeatherDisplay:10.37,2013-03-22 04:37:00,
2013-03-22 05:42:00,32.9,26.2,29.80,NNW,338,17.3,17.3,76,0.00,OVC,,0.50,0.0,WeatherDisplay:10.37,2013-03-22 04:42:00,
2013-03-22 05:47:00,32.9,26.2,29.80,NNW,338,8.1,12.1,76,0.00,OVC,,0.50,0.0,WeatherDisplay:10.37,2013-03-22 04:47:00,
2013-03-22 05:52:00,32.9,26.2,29.80,NNE,22,10.5,10.5,76,0.00,OVC,,0.50,0.0,WeatherDisplay:10.37,2013-03-22 04:52:00,
2013-03-22 05:57:00,32.9,26.2,29.80,NNW,338,11.5,11.8,76,0.00,OVC,,0.50,0.0,WeatherDisplay:10.37,2013-03-22 04:57:00,
2013-03-22 06:02:00,32.9,26.2,29.80,WNW,292,10.7,10.7,76,0.00,OVC,,0.50,0.0,WeatherDisplay:10.37,2013-03-22 05:02:00,
2013-03-22 06:07:00,32.9,26.5,29.80,WNW,292,10.7,10.7,77,0.00,OVC,,0.50,2.6,WeatherDisplay:10.37,2013-03-22 05:07:00,
2013-03-22 06:12:00,32.9,26.5,29.80,WNW,292,10.7,10.7,77,0.00,OVC,,0.50,5.3,WeatherDisplay:10.37,2013-03-22 05:12:00,
2013-03-22 06:17:00,32.9,26.5,29.80,WNW,292,10.7,10.7,77,0.00,OVC,,0.50,7.9,WeatherDisplay:10.37,2013-03-22 05:17:00,
2013-03-22 06:22:00,32.9,26.5,29.83,NNW,338,15.4,15.4,77,0.00,OVC,,0.50,10.6,WeatherDisplay:10.37,2013-03-22 05:22:00,
2013-03-22 06:27:00,32.9,26.2,29.83,NNW,338,15.4,15.4,76,0.00,OVC,,0.50,13.2,WeatherDisplay:10.37,2013-03-22 05:27:00,
2013-03-22 06:32:00,33.1,26.3,29.83,NNW,338,15.4,15.4,76,0.00,OVC,,0.50,15.8,WeatherDisplay:10.37,2013-03-22 05:32:00,
2013-03-22 06:37:00,33.1,26.3,29.80,NNE,22,15.0,15.0,76,0.00,OVC,,0.50,18.5,WeatherDisplay:10.37,2013-03-22 05:37:00,
2013-03-22 06:42:00,33.1,26.3,29.80,NNE,22,12.7,12.7,76,0.00,OVC,,0.50,21.1,WeatherDisplay:10.37,2013-03-22 05:42:00,
2013-03-22 06:47:00,33.1,26.3,29.80,NNE,22,12.7,12.7,76,0.00,OVC,,0.50,23.9,WeatherDisplay:10.37,2013-03-22 05:47:00,
2013-03-22 06:52:00,33.1,26.3,29.80,NNE,22,10.5,10.5,76,0.00,OVC,,0.50,26.6,WeatherDisplay:10.37,2013-03-22 05:52:00,
2013-03-22 06:57:00,33.1,26.3,29.80,NNE,22,10.5,10.5,76,0.00,OVC,,0.50,29.4,WeatherDisplay:10.37,2013-03-22 05:57:00,
2013-03-22 07:02:00,33.3,26.5,29.80,NNE,22,10.5,10.5,76,0.00,RA,,0.00,32.0,WeatherDisplay:10.37,2013-03-22 06:02:00,
2013-03-22 07:07:00,33.3,26.5,29.80,NNE,22,10.5,10.5,76,0.00,RA,,0.00,34.8,WeatherDisplay:10.37,2013-03-22 06:07:00,
2013-03-22 07:12:00,33.3,26.5,29.80,NNE,22,10.5,10.5,76,0.00,OVC,,0.00,37.5,WeatherDisplay:10.37,2013-03-22 06:12:00,
2013-03-22 07:17:00,33.3,26.5,29.80,NNE,22,10.5,10.5,76,0.00,OVC,,0.00,40.3,WeatherDisplay:10.37,2013-03-22 06:17:00,
2013-03-22 07:22:00,33.4,26.4,29.80,NNE,22,10.5,10.5,75,0.00,OVC,,0.00,42.9,WeatherDisplay:10.37,2013-03-22 06:22:00,
2013-03-22 07:27:00,33.6,26.5,29.80,NNE,22,10.5,10.5,75,0.00,OVC,,0.00,45.5,WeatherDisplay:10.37,2013-03-22 06:27:00,
2013-03-22 07:32:00,33.6,26.5,29.80,NNE,22,10.5,10.5,75,0.00,OVC,,0.00,48.3,WeatherDisplay:10.37,2013-03-22 06:32:00,
2013-03-22 07:37:00,33.8,26.7,29.77,NNE,22,10.5,10.5,75,0.00,OVC,,0.00,51.0,WeatherDisplay:10.37,2013-03-22 06:37:00,
2013-03-22 07:43:00,33.8,26.7,29.77,NNE,22,10.5,10.5,75,0.00,OVC,,0.00,53.6,WeatherDisplay:10.37,2013-03-22 06:43:00,
2013-03-22 07:48:00,33.8,26.4,29.77,NNE,22,10.5,10.5,74,0.00,OVC,,0.00,56.4,WeatherDisplay:10.37,2013-03-22 06:48:00,
2013-03-22 07:53:00,34.0,26.6,29.83,NNE,22,10.5,10.5,74,0.00,OVC,,0.00,59.1,WeatherDisplay:10.37,2013-03-22 06:53:00,
2013-03-22 07:58:00,34.2,26.4,29.83,NNE,22,10.5,10.5,73,0.00,OVC,,0.00,61.7,WeatherDisplay:10.37,2013-03-22 06:58:00,
2013-03-22 08:03:00,34.2,26.4,29.83,NNE,22,10.4,10.4,73,0.00,OVC,,0.00,64.3,WeatherDisplay:10.37,2013-03-22 07:03:00,
2013-03-22 08:08:00,34.3,26.6,29.77,NNE,22,10.5,10.5,73,0.00,OVC,,0.00,67.0,WeatherDisplay:10.37,2013-03-22 07:08:00,
2013-03-22 08:13:00,34.5,26.8,29.77,NNE,22,10.5,10.5,73,0.00,OVC,,0.00,69.5,WeatherDisplay:10.37,2013-03-22 07:13:00,
2013-03-22 08:18:00,34.5,26.8,29.77,NNE,22,10.5,10.5,73,0.00,OVC,,0.00,72.1,WeatherDisplay:10.37,2013-03-22 07:18:00,
2013-03-22 08:23:00,34.7,26.6,29.80,NNE,22,10.5,10.5,72,0.00,OVC,,0.00,74.7,WeatherDisplay:10.37,2013-03-22 07:23:00,
2013-03-22 08:28:00,34.9,26.8,29.80,NNE,22,10.5,10.5,72,0.00,OVC,,0.00,77.2,WeatherDisplay:10.37,2013-03-22 07:28:00,
2013-03-22 08:33:00,35.1,26.9,29.80,NNE,22,10.5,10.5,72,0.00,OVC,,0.00,79.7,WeatherDisplay:10.37,2013-03-22 07:33:00,
2013-03-22 08:38:00,35.2,27.1,29.80,NNE,22,10.5,10.5,72,0.00,OVC,,0.00,82.2,WeatherDisplay:10.37,2013-03-22 07:38:00,
2013-03-22 08:43:00,35.4,26.6,29.80,NNE,22,10.5,10.5,70,0.00,OVC,,0.00,84.6,WeatherDisplay:10.37,2013-03-22 07:43:00,
2013-03-22 08:48:00,35.6,27.1,29.80,NNE,22,10.5,10.5,71,0.00,OVC,,0.00,87.0,WeatherDisplay:10.37,2013-03-22 07:48:00,
2013-03-22 08:53:00,35.8,26.9,29.80,NNE,22,10.5,10.5,70,0.00,OVC,,0.00,89.4,WeatherDisplay:10.37,2013-03-22 07:53:00,
2013-03-22 08:58:00,35.8,26.9,29.80,NNE,22,10.5,10.5,70,0.00,OVC,,0.00,91.7,WeatherDisplay:10.37,2013-03-22 07:58:00,
2013-03-22 09:03:00,36.1,27.3,29.80,NNE,22,10.5,10.5,70,0.00,OVC,,0.00,94.0,WeatherDisplay:10.37,2013-03-22 08:03:00,
2013-03-22 09:08:00,36.3,26.8,29.80,NNE,22,10.5,10.5,68,0.00,OVC,,0.00,96.9,WeatherDisplay:10.37,2013-03-22 08:08:00,
2013-03-22 09:13:00,36.7,27.1,29.80,NNE,22,10.5,10.5,68,0.00,OVC,,0.00,99.0,WeatherDisplay:10.37,2013-03-22 08:13:00,
2013-03-22 09:18:00,36.9,27.6,29.80,NNE,22,10.5,10.5,69,0.00,OVC,,0.00,101.1,WeatherDisplay:10.37,2013-03-22 08:18:00,
2013-03-22 09:23:00,37.0,27.1,29.80,NNE,22,10.5,10.5,67,0.00,OVC,,0.00,103.3,WeatherDisplay:10.37,2013-03-22 08:23:00,
2013-03-22 09:28:00,37.4,27.8,29.80,NNE,22,10.5,10.5,68,0.00,OVC,,0.00,105.4,WeatherDisplay:10.37,2013-03-22 08:28:00,
2013-03-22 09:33:00,37.4,27.1,29.80,NNE,22,10.5,10.5,66,0.00,OVC,,0.00,107.4,WeatherDisplay:10.37,2013-03-22 08:33:00,
2013-03-22 09:38:00,37.8,27.8,29.80,NNE,22,10.5,10.5,67,0.00,OVC,,0.00,109.4,WeatherDisplay:10.37,2013-03-22 08:38:00,
2013-03-22 09:43:00,37.6,27.6,29.80,NNE,22,10.5,10.5,67,0.00,OVC,,0.00,111.4,WeatherDisplay:10.37,2013-03-22 08:43:00,
2013-03-22 09:48:00,37.9,27.6,29.80,NNE,22,10.5,10.5,66,0.00,OVC,,0.00,113.4,WeatherDisplay:10.37,2013-03-22 08:48:00,
2013-03-22 09:53:00,38.1,27.4,29.80,NNE,22,10.5,10.5,65,0.00,OVC,,0.00,115.2,WeatherDisplay:10.37,2013-03-22 08:53:00,
2013-03-22 09:58:00,38.3,27.2,29.80,NNE,22,10.5,10.5,64,0.00,OVC,,0.00,117.0,WeatherDisplay:10.37,2013-03-22 08:58:00,
2013-03-22 10:03:00,38.7,27.9,29.80,NNE,22,10.5,10.5,65,0.00,OVC,,0.00,118.8,WeatherDisplay:10.37,2013-03-22 09:03:00,
2013-03-22 10:08:00,38.7,27.1,29.80,NNE,22,10.5,10.5,63,0.00,OVC,,0.00,120.5,WeatherDisplay:10.37,2013-03-22 09:08:00,
2013-03-22 10:13:00,38.8,26.9,29.80,NNE,22,10.5,10.5,62,0.00,OVC,,0.00,121.9,WeatherDisplay:10.37,2013-03-22 09:13:00,
2013-03-22 10:18:00,39.0,27.9,29.80,NNE,22,10.5,10.5,64,0.00,OVC,,0.00,123.6,WeatherDisplay:10.37,2013-03-22 09:18:00,
2013-03-22 10:23:00,39.2,26.9,29.83,NNE,22,10.5,10.5,61,0.00,OVC,,0.00,125.1,WeatherDisplay:10.37,2013-03-22 09:23:00,
2013-03-22 10:28:00,39.2,26.5,29.83,NNW,338,15.0,15.0,60,0.00,OVC,,0.00,126.6,WeatherDisplay:10.37,2013-03-22 09:28:00,
2013-03-22 10:33:00,39.6,27.2,29.83,NNW,338,15.0,15.0,61,0.00,OVC,,0.00,127.9,WeatherDisplay:10.37,2013-03-22 09:33:00,
2013-03-22 10:38:00,39.9,26.7,29.83,NNW,338,15.0,15.0,59,0.00,OVC,,0.00,129.2,WeatherDisplay:10.37,2013-03-22 09:38:00,
2013-03-22 10:43:00,39.9,26.7,29.83,NNW,338,15.0,15.0,59,0.00,OVC,,0.00,130.3,WeatherDisplay:10.37,2013-03-22 09:43:00,
2013-03-22 10:48:00,39.9,27.1,29.83,NNW,338,15.0,15.0,60,0.00,OVC,,0.00,131.7,WeatherDisplay:10.37,2013-03-22 09:48:00,
2013-03-22 10:53:00,39.7,26.6,29.83,NNW,338,15.0,15.0,59,0.00,OVC,,0.00,132.7,WeatherDisplay:10.37,2013-03-22 09:53:00,
2013-03-22 10:58:00,39.7,26.6,29.83,NNW,338,15.0,15.0,59,0.00,OVC,,0.00,133.8,WeatherDisplay:10.37,2013-03-22 09:58:00,
2013-03-22 11:03:00,39.7,27.0,29.83,NNW,338,15.0,15.0,60,0.00,OVC,,0.00,134.8,WeatherDisplay:10.37,2013-03-22 10:03:00,
2013-03-22 11:08:00,39.6,26.0,29.83,NNW,338,15.0,15.0,58,0.00,OVC,,0.00,135.6,WeatherDisplay:10.37,2013-03-22 10:08:00,
2013-03-22 11:13:00,39.9,26.3,29.83,NNW,338,15.0,15.0,58,0.00,OVC,,0.00,136.5,WeatherDisplay:10.37,2013-03-22 10:13:00,
2013-03-22 11:18:00,39.9,26.7,29.83,NNW,338,15.0,15.0,59,0.00,OVC,,0.00,137.3,WeatherDisplay:10.37,2013-03-22 10:18:00,
2013-03-22 11:23:00,39.9,26.7,29.83,NNW,338,15.0,15.0,59,0.00,OVC,,0.00,137.9,WeatherDisplay:10.37,2013-03-22 10:23:00,
2013-03-22 11:28:00,40.5,27.2,29.83,NNW,338,15.0,15.0,59,0.00,OVC,,0.00,138.6,WeatherDisplay:10.37,2013-03-22 10:28:00,
2013-03-22 11:33:00,41.0,26.9,29.83,NNW,338,15.0,15.0,57,0.00,OVC,,0.00,139.1,WeatherDisplay:10.37,2013-03-22 10:33:00,
2013-03-22 11:38:00,41.2,27.5,29.83,NNW,338,11.5,11.5,58,0.00,OVC,,0.00,139.6,WeatherDisplay:10.37,2013-03-22 10:38:00,
2013-03-22 11:43:00,41.2,26.7,29.83,NNW,338,11.5,11.5,56,0.00,OVC,,0.00,140.1,WeatherDisplay:10.37,2013-03-22 10:43:00,
2013-03-22 11:48:00,41.0,26.5,29.83,WSW,248,17.3,17.3,56,0.00,OVC,,0.00,140.4,WeatherDisplay:10.37,2013-03-22 10:48:00,
2013-03-22 11:53:00,41.2,27.1,29.83,WNW,292,17.3,17.3,57,0.00,OVC,,0.00,140.6,WeatherDisplay:10.37,2013-03-22 10:53:00,
2013-03-22 11:58:00,41.0,26.5,29.83,NNW,338,18.4,18.4,56,0.00,OVC,,0.00,140.9,WeatherDisplay:10.37,2013-03-22 10:58:00,
2013-03-22 12:03:00,41.0,26.1,29.83,NNW,338,18.4,18.4,55,0.00,OVC,,0.00,140.9,WeatherDisplay:10.37,2013-03-22 11:03:00,
2013-03-22 12:08:00,41.4,26.8,29.83,NNW,338,18.4,18.4,56,0.00,OVC,,0.00,141.1,WeatherDisplay:10.37,2013-03-22 11:08:00,
2013-03-22 12:13:00,41.5,27.0,29.83,NNW,338,13.8,13.8,56,0.00,OVC,,0.00,140.9,WeatherDisplay:10.37,2013-03-22 11:13:00,
2013-03-22 12:18:00,41.4,26.8,29.83,NNW,338,10.5,12.3,56,0.00,OVC,,0.00,140.9,WeatherDisplay:10.37,2013-03-22 11:18:00,
2013-03-22 12:23:00,41.5,27.0,29.83,WSW,248,11.4,11.4,56,0.00,OVC,,0.00,140.7,WeatherDisplay:10.37,2013-03-22 11:23:00,
2013-03-22 12:28:00,41.5,26.6,29.83,NNW,338,9.2,13.5,55,0.00,OVC,,0.00,140.4,WeatherDisplay:10.37,2013-03-22 11:28:00,
2013-03-22 12:33:00,41.7,27.6,29.83,SSW,202,13.0,13.0,57,0.00,OVC,,0.00,140.1,WeatherDisplay:10.37,2013-03-22 11:33:00,
2013-03-22 12:38:00,42.1,27.9,29.83,NNE,22,6.9,6.9,57,0.00,OVC,,0.00,139.8,WeatherDisplay:10.37,2013-03-22 11:38:00,
2013-03-22 12:43:00,41.5,27.0,29.83,WNW,292,10.4,11.4,56,0.00,OVC,,0.00,139.3,WeatherDisplay:10.37,2013-03-22 11:43:00,
2013-03-22 12:48:00,41.7,26.7,29.83,NNW,338,11.5,11.5,55,0.00,OVC,,0.00,138.6,WeatherDisplay:10.37,2013-03-22 11:48:00,
2013-03-22 12:53:00,41.5,26.6,29.83,NNW,338,12.1,12.8,55,0.00,OVC,,0.00,138.1,WeatherDisplay:10.37,2013-03-22 11:53:00,
2013-03-22 12:58:00,41.4,26.4,29.83,NNW,338,12.7,13.2,55,0.00,OVC,,0.00,137.3,WeatherDisplay:10.37,2013-03-22 11:58:00,
2013-03-22 13:03:00,41.5,26.1,29.83,NNW,338,11.5,11.5,54,0.00,OVC,,0.00,136.6,WeatherDisplay:10.37,2013-03-22 12:03:00,
2013-03-22 13:08:00,41.5,26.6,29.83,NNW,338,12.7,15.6,55,0.00,OVC,,0.00,135.8,WeatherDisplay:10.37,2013-03-22 12:08:00,
2013-03-22 13:13:00,41.5,26.6,29.83,WNW,292,12.7,12.7,55,0.00,OVC,,0.00,135.0,WeatherDisplay:10.37,2013-03-22 12:13:00,
2013-03-22 13:18:00,41.5,26.6,29.83,WNW,292,16.3,16.3,55,0.00,OVC,,0.00,134.0,WeatherDisplay:10.37,2013-03-22 12:18:00,
2013-03-22 13:23:00,41.2,26.2,29.83,NNE,22,15.0,15.0,55,0.00,OVC,,0.00,132.8,WeatherDisplay:10.37,2013-03-22 12:23:00,
2013-03-22 13:28:00,41.7,26.7,29.83,NNW,338,11.5,11.5,55,0.00,OVC,,0.00,131.8,WeatherDisplay:10.37,2013-03-22 12:28:00,
2013-03-22 13:33:00,42.1,27.1,29.83,NW,315,9.2,9.2,55,0.00,OVC,,0.00,130.5,WeatherDisplay:10.37,2013-03-22 12:33:00,
2013-03-22 13:38:00,42.1,27.1,29.83,NNW,338,12.7,12.7,55,0.00,OVC,,0.00,129.4,WeatherDisplay:10.37,2013-03-22 12:38:00,
2013-03-22 13:43:00,41.7,26.3,29.83,NNW,338,13.8,14.3,54,0.00,OVC,,0.00,128.0,WeatherDisplay:10.37,2013-03-22 12:43:00,
2013-03-22 13:48:00,41.7,26.7,29.83,NNW,338,10.4,10.5,55,0.00,OVC,,0.00,126.7,WeatherDisplay:10.37,2013-03-22 12:48:00,
2013-03-22 13:53:00,41.9,26.4,29.83,North,0,11.5,11.5,54,0.00,OVC,,0.00,125.2,WeatherDisplay:10.37,2013-03-22 12:53:00,
2013-03-22 13:58:00,42.1,27.1,29.83,ENE,68,7.4,7.4,55,0.00,OVC,,0.00,123.8,WeatherDisplay:10.37,2013-03-22 12:58:00,
2013-03-22 14:03:00,42.3,26.8,29.83,NNE,22,7.4,10.7,54,0.00,OVC,,0.00,122.3,WeatherDisplay:10.37,2013-03-22 13:03:00,
2013-03-22 14:08:00,42.1,26.2,29.85,NNW,338,12.1,12.1,53,0.00,OVC,,0.00,120.6,WeatherDisplay:10.37,2013-03-22 13:08:00,
2013-03-22 14:13:00,42.1,26.6,29.85,NNW,338,13.8,13.8,54,0.00,OVC,,0.00,119.0,WeatherDisplay:10.37,2013-03-22 13:13:00,
2013-03-22 14:18:00,42.3,26.8,29.85,North,0,10.5,10.5,54,0.00,OVC,,0.00,117.2,WeatherDisplay:10.37,2013-03-22 13:18:00,
2013-03-22 14:23:00,42.1,26.2,29.85,North,0,15.2,15.2,53,0.00,OVC,,0.00,115.3,WeatherDisplay:10.37,2013-03-22 13:23:00,
2013-03-22 14:28:00,41.7,25.8,29.85,NNW,338,15.0,15.0,53,0.00,OVC,,0.00,113.5,WeatherDisplay:10.37,2013-03-22 13:28:00,
2013-03-22 14:33:00,42.1,26.6,29.85,North,0,12.7,12.7,54,0.00,OVC,,0.00,111.7,WeatherDisplay:10.37,2013-03-22 13:33:00,
2013-03-22 14:38:00,41.9,26.0,29.85,NNW,338,10.5,10.5,53,0.00,OVC,,0.00,109.7,WeatherDisplay:10.37,2013-03-22 13:38:00,
2013-03-22 14:43:00,41.9,26.0,29.85,NNW,338,8.1,9.8,53,0.00,OVC,,0.00,107.7,WeatherDisplay:10.37,2013-03-22 13:43:00,
2013-03-22 14:48:00,41.9,26.0,29.85,NNW,338,12.7,12.7,53,0.00,OVC,,0.00,105.6,WeatherDisplay:10.37,2013-03-22 13:48:00,
2013-03-22 14:53:00,42.1,26.2,29.85,NNW,338,12.7,12.7,53,0.00,OVC,,0.00,103.6,WeatherDisplay:10.37,2013-03-22 13:53:00,
2013-03-22 14:58:00,42.3,26.3,29.85,NNW,338,9.2,9.2,53,0.00,OVC,,0.00,101.5,WeatherDisplay:10.37,2013-03-22 13:58:00,
2013-03-22 15:03:00,42.4,27.0,29.85,NNE,22,8.7,8.7,54,0.00,OVC,,0.00,99.3,WeatherDisplay:10.37,2013-03-22 14:03:00,
2013-03-22 15:08:00,42.4,25.1,29.85,NNW,338,13.8,13.8,50,0.00,OVC,,0.00,97.2,WeatherDisplay:10.37,2013-03-22 14:08:00,
2013-03-22 15:13:00,42.4,26.0,29.85,WNW,292,12.7,12.7,52,0.00,OVC,,0.00,94.9,WeatherDisplay:10.37,2013-03-22 14:13:00,
2013-03-22 15:18:00,42.1,26.2,29.85,NNW,338,14.7,14.7,53,0.00,OVC,,0.00,92.6,WeatherDisplay:10.37,2013-03-22 14:18:00,
2013-03-22 15:23:00,41.7,25.8,29.85,North,0,8.1,8.1,53,0.00,OVC,,0.00,90.3,WeatherDisplay:10.37,2013-03-22 14:23:00,
2013-03-22 15:28:00,41.4,25.5,29.85,WNW,292,8.1,8.1,53,0.00,OVC,,0.00,87.8,WeatherDisplay:10.37,2013-03-22 14:28:00,
2013-03-22 15:33:00,41.0,24.7,29.85,NNW,338,8.1,10.0,52,0.00,OVC,,0.00,85.5,WeatherDisplay:10.37,2013-03-22 14:33:00,
2013-03-22 15:38:00,40.8,25.4,29.85,NNW,338,15.0,15.0,54,0.00,OVC,,0.00,83.0,WeatherDisplay:10.37,2013-03-22 14:38:00,
2013-03-22 15:43:00,40.8,25.4,29.85,NNW,338,10.4,10.4,54,0.00,OVC,,0.00,80.5,WeatherDisplay:10.37,2013-03-22 14:43:00,
2013-03-22 15:48:00,40.5,25.1,29.85,NNW,338,10.4,10.4,54,0.00,OVC,,0.00,78.0,WeatherDisplay:10.37,2013-03-22 14:48:00,
2013-03-22 15:53:00,40.5,24.7,29.85,NNW,338,10.5,10.7,53,0.00,OVC,,0.00,75.6,WeatherDisplay:10.37,2013-03-22 14:53:00,
2013-03-22 15:58:00,40.3,24.5,29.85,NE,45,15.0,15.0,53,0.00,OVC,,0.00,72.9,WeatherDisplay:10.37,2013-03-22 14:58:00,
2013-03-22 16:03:00,40.1,24.8,29.85,NNE,22,10.7,10.7,54,0.00,OVC,,0.00,70.5,WeatherDisplay:10.37,2013-03-22 15:03:00,
2013-03-22 16:08:00,39.9,24.6,29.88,North,0,6.2,8.7,54,0.00,OVC,,0.00,67.8,WeatherDisplay:10.37,2013-03-22 15:08:00,
2013-03-22 16:13:00,39.7,24.4,29.88,WNW,292,15.0,15.0,54,0.00,OVC,,0.00,65.2,WeatherDisplay:10.37,2013-03-22 15:13:00,
2013-03-22 16:18:00,39.6,24.3,29.88,NNW,338,15.2,15.2,54,0.00,OVC,,0.00,62.5,WeatherDisplay:10.37,2013-03-22 15:18:00,
2013-03-22 16:23:00,39.2,23.9,29.83,NNW,338,15.2,15.2,54,0.00,OVC,,0.00,59.9,WeatherDisplay:10.37,2013-03-22 15:23:00,
2013-03-22 16:28:00,39.2,23.9,29.83,NW,315,12.8,13.0,54,0.00,OVC,,0.00,57.3,WeatherDisplay:10.37,2013-03-22 15:28:00,
2013-03-22 16:33:00,39.0,23.8,29.83,ENE,68,12.7,12.7,54,0.00,OVC,,0.00,54.6,WeatherDisplay:10.37,2013-03-22 15:33:00,
2013-03-22 16:38:00,38.8,23.6,29.88,ENE,68,10.4,10.4,54,0.00,OVC,,0.00,52.0,WeatherDisplay:10.37,2013-03-22 15:38:00,
2013-03-22 16:43:00,38.7,23.9,29.88,NW,315,10.4,10.4,55,0.00,OVC,,0.00,49.2,WeatherDisplay:10.37,2013-03-22 15:43:00,
2013-03-22 16:48:00,38.5,23.3,29.88,NNW,338,12.5,12.5,54,0.00,OVC,,0.00,46.5,WeatherDisplay:10.37,2013-03-22 15:48:00,
2013-03-22 16:53:00,38.5,23.7,29.83,NW,315,12.7,12.7,55,0.00,OVC,,0.00,43.9,WeatherDisplay:10.37,2013-03-22 15:53:00,
2013-03-22 16:58:00,38.3,23.5,29.83,NNW,338,10.2,10.2,55,0.00,OVC,,0.00,41.1,WeatherDisplay:10.37,2013-03-22 15:58:00,
2013-03-22 17:03:00,38.3,23.5,29.83,NNW,338,5.8,5.8,55,0.00,OVC,,0.00,38.4,WeatherDisplay:10.37,2013-03-22 16:03:00,
2013-03-22 17:08:00,38.1,23.4,29.85,NNW,338,5.9,5.9,55,0.00,OVC,,0.00,35.8,WeatherDisplay:10.37,2013-03-22 16:08:00,
2013-03-22 17:14:00,37.9,23.2,29.85,NNW,338,12.8,12.8,55,0.00,OVC,,0.00,33.0,WeatherDisplay:10.37,2013-03-22 16:14:00,
2013-03-22 17:19:00,37.9,23.2,29.85,NNW,338,8.5,8.5,55,0.00,OVC,,0.00,29.7,WeatherDisplay:10.37,2013-03-22 16:19:00,
2013-03-22 17:24:00,37.6,22.4,29.85,NNW,338,6.0,6.0,54,0.00,OVC,,0.00,27.1,WeatherDisplay:10.37,2013-03-22 16:24:00,
2013-03-22 17:29:00,37.6,22.4,29.85,NNE,22,10.4,10.4,54,0.00,OVC,,0.00,24.9,WeatherDisplay:10.37,2013-03-22 16:29:00,
2013-03-22 17:34:00,37.4,22.7,29.85,NNW,338,10.2,10.2,55,0.00,OVC,,0.00,22.1,WeatherDisplay:10.37,2013-03-22 16:34:00,
2013-03-22 17:39:00,37.0,22.4,29.88,NNW,338,10.4,10.4,55,0.00,OVC,,0.00,19.0,WeatherDisplay:10.37,2013-03-22 16:39:00,
2013-03-22 17:44:00,36.9,22.2,29.88,NNW,338,7.4,7.8,55,0.00,OVC,,0.00,16.3,WeatherDisplay:10.37,2013-03-22 16:44:00,
2013-03-22 17:49:00,36.7,22.0,29.88,NNW,338,11.5,11.5,55,0.00,OVC,,0.00,14.2,WeatherDisplay:10.37,2013-03-22 16:49:00,
2013-03-22 17:54:00,36.5,21.8,29.88,NNW,338,9.2,9.2,55,0.00,OVC,,0.00,11.6,WeatherDisplay:10.37,2013-03-22 16:54:00,
2013-03-22 17:59:00,36.3,22.1,29.88,WNW,292,12.7,12.7,56,0.00,OVC,,0.00,8.3,WeatherDisplay:10.37,2013-03-22 16:59:00,
2013-03-22 18:04:00,36.1,21.9,29.88,WNW,292,8.1,8.1,56,0.00,CLR,,0.00,0.0,WeatherDisplay:10.37,2013-03-22 17:04:00,
2013-03-22 18:09:00,36.0,21.8,29.88,WNW,292,8.1,8.1,56,0.00,CLR,,0.00,0.0,WeatherDisplay:10.37,2013-03-22 17:09:00,
2013-03-22 18:14:00,35.8,22.0,29.88,NNW,338,8.1,8.1,57,0.00,CLR,,0.00,0.0,WeatherDisplay:10.37,2013-03-22 17:14:00,
2013-03-22 18:19:00,35.6,21.9,29.88,WNW,292,6.9,6.9,57,0.00,CLR,,0.00,0.0,WeatherDisplay:10.37,2013-03-22 17:19:00,
2013-03-22 18:24:00,35.6,21.9,29.91,NNW,338,10.4,10.4,57,0.00,CLR,,0.00,0.0,WeatherDisplay:10.37,2013-03-22 17:24:00,
2013-03-22 18:29:00,35.4,22.1,29.91,NNW,338,8.1,8.1,58,0.00,CLR,,0.00,0.0,WeatherDisplay:10.37,2013-03-22 17:29:00,
2013-03-22 18:34:00,35.2,21.9,29.91,NNW,338,10.5,10.5,58,0.00,CLR,,0.00,0.0,WeatherDisplay:10.37,2013-03-22 17:34:00,
2013-03-22 18:39:00,35.1,21.8,29.91,NNW,338,5.8,5.8,58,0.00,CLR,,0.00,0.0,WeatherDisplay:10.37,2013-03-22 17:39:00,
2013-03-22 18:44:00,35.1,22.2,29.91,NNW,338,7.1,7.1,59,0.00,CLR,,0.00,0.0,WeatherDisplay:10.37,2013-03-22 17:44:00,
2013-03-22 18:49:00,34.9,22.0,29.91,WNW,292,6.9,6.9,59,0.00,CLR,,0.00,0.0,WeatherDisplay:10.37,2013-03-22 17:49:00,
2013-03-22 18:54:00,34.7,21.8,29.91,NNW,338,10.4,10.4,59,0.00,CLR,,0.00,0.0,WeatherDisplay:10.37,2013-03-22 17:54:00,
2013-03-22 18:59:00,34.7,21.8,29.91,NW,315,6.9,6.9,59,0.00,CLR,,0.00,0.0,WeatherDisplay:10.37,2013-03-22 17:59:00,
2013-03-22 19:04:00,34.5,21.7,29.91,NNW,338,6.9,6.9,59,0.00,CLR,,0.00,0.0,WeatherDisplay:10.37,2013-03-22 18:04:00,
2013-03-22 19:09:00,34.3,21.5,29.94,NNW,338,8.1,8.1,59,0.00,CLR,,0.00,0.0,WeatherDisplay:10.37,2013-03-22 18:09:00,
2013-03-22 19:14:00,34.2,21.7,29.94,NNW,338,5.9,5.9,60,0.00,CLR,,0.00,0.0,WeatherDisplay:10.37,2013-03-22 18:14:00,
2013-03-22 19:19:00,34.2,21.7,29.94,NNW,338,5.8,5.8,60,0.00,CLR,,0.00,0.0,WeatherDisplay:10.37,2013-03-22 18:19:00,
2013-03-22 19:24:00,34.0,21.5,29.88,WNW,292,5.8,5.8,60,0.00,CLR,,0.00,0.0,WeatherDisplay:10.37,2013-03-22 18:24:00,
2013-03-22 19:29:00,34.0,21.9,29.88,WSW,248,4.6,4.6,61,0.00,CLR,,0.00,0.0,WeatherDisplay:10.37,2013-03-22 18:29:00,
2013-03-22 19:34:00,34.0,21.5,29.88,NNW,338,6.9,6.9,60,0.00,CLR,,0.00,0.0,WeatherDisplay:10.37,2013-03-22 18:34:00,
2013-03-22 19:39:00,34.0,21.5,29.91,NNW,338,5.8,5.8,60,0.00,CLR,,0.00,0.0,WeatherDisplay:10.37,2013-03-22 18:39:00,
2013-03-22 19:44:00,33.8,21.0,29.91,NNW,338,6.9,6.9,59,0.00,CLR,,0.00,0.0,WeatherDisplay:10.37,2013-03-22 18:44:00,
2013-03-22 19:49:00,33.8,21.4,29.91,WNW,292,8.1,8.1,60,0.00,CLR,,0.00,0.0,WeatherDisplay:10.37,2013-03-22 18:49:00,
2013-03-22 19:54:00,33.6,21.6,29.94,NNW,338,5.8,5.8,61,0.00,CLR,,0.00,0.0,WeatherDisplay:10.37,2013-03-22 18:54:00,
2013-03-22 19:59:00,33.6,21.6,29.94,NNW,338,5.8,5.8,61,0.00,CLR,,0.00,0.0,WeatherDisplay:10.37,2013-03-22 18:59:00,
2013-03-22 20:04:00,33.4,21.4,29.94,NNW,338,5.8,5.8,61,0.00,CLR,,0.00,0.0,WeatherDisplay:10.37,2013-03-22 19:04:00,
2013-03-22 20:09:00,33.3,21.3,29.94,NNW,338,5.8,5.8,61,0.00,CLR,,0.00,0.0,WeatherDisplay:10.37,2013-03-22 19:09:00,
2013-03-22 20:14:00,33.1,21.5,29.94,NNW,338,5.8,5.8,62,0.00,CLR,,0.00,0.0,WeatherDisplay:10.37,2013-03-22 19:14:00,
2013-03-22 20:19:00,32.9,21.3,29.94,NNW,338,5.8,5.8,62,0.00,CLR,,0.00,0.0,WeatherDisplay:10.37,2013-03-22 19:19:00,
2013-03-22 20:24:00,32.7,21.5,29.94,WNW,292,3.8,3.8,63,0.00,CLR,,0.00,0.0,WeatherDisplay:10.37,2013-03-22 19:24:00,
2013-03-22 20:29:00,32.5,21.3,29.94,WNW,292,3.8,3.8,63,0.00,CLR,,0.00,0.0,WeatherDisplay:10.37,2013-03-22 19:29:00,
2013-03-22 20:34:00,32.5,21.3,29.94,NNE,22,3.6,3.6,63,0.00,CLR,,0.00,0.0,WeatherDisplay:10.37,2013-03-22 19:34:00,
2013-03-22 20:39:00,32.4,21.2,29.94,WNW,292,4.7,4.7,63,0.00,CLR,,0.00,0.0,WeatherDisplay:10.37,2013-03-22 19:39:00,
2013-03-22 20:44:00,32.2,21.4,29.94,NNW,338,3.5,4.3,64,0.00,CLR,,0.00,0.0,WeatherDisplay:10.37,2013-03-22 19:44:00,
2013-03-22 20:49:00,32.0,21.2,29.94,NNW,338,3.5,3.6,64,0.00,CLR,,0.00,0.0,WeatherDisplay:10.37,2013-03-22 19:49:00,
2013-03-22 20:54:00,32.0,21.2,29.94,WNW,292,8.1,8.1,64,0.00,CLR,,0.00,0.0,WeatherDisplay:10.37,2013-03-22 19:54:00,
2013-03-22 20:59:00,31.8,21.4,29.94,WNW,292,8.1,8.1,65,0.00,CLR,,0.00,0.0,WeatherDisplay:10.37,2013-03-22 19:59:00,
2013-03-22 21:04:00,31.8,21.4,29.94,WNW,292,8.1,8.1,65,0.00,CLR,,0.00,0.0,WeatherDisplay:10.37,2013-03-22 20:04:00,
2013-03-22 21:09:00,31.6,21.2,29.94,WNW,292,1.4,2.2,65,0.00,CLR,,0.00,0.0,WeatherDisplay:10.37,2013-03-22 20:09:00,
2013-03-22 21:14:00,31.5,21.4,29.94,WNW,292,2.6,2.6,66,0.00,CLR,,0.00,0.0,WeatherDisplay:10.37,2013-03-22 20:14:00,
2013-03-22 21:19:00,31.1,21.1,29.94,NNW,338,2.3,2.3,66,0.00,CLR,,0.00,0.0,WeatherDisplay:10.37,2013-03-22 20:19:00,
2013-03-22 21:24:00,31.1,21.1,29.97,North,0,2.9,3.1,66,0.00,CLR,,0.00,0.0,WeatherDisplay:10.37,2013-03-22 20:24:00,
2013-03-22 21:29:00,31.1,21.1,29.97,North,0,2.9,3.1,66,0.00,CLR,,0.00,0.0,WeatherDisplay:10.37,2013-03-22 20:29:00,
2013-03-22 21:34:00,31.1,21.4,29.97,NW,315,3.8,3.8,67,0.00,CLR,,0.00,0.0,WeatherDisplay:10.37,2013-03-22 20:34:00,
2013-03-22 21:39:00,31.1,21.4,29.94,NW,315,3.8,3.8,67,0.00,CLR,,0.00,0.0,WeatherDisplay:10.37,2013-03-22 20:39:00,
2013-03-22 21:44:00,31.1,21.4,29.94,NW,315,4.6,4.6,67,0.00,CLR,,0.00,0.0,WeatherDisplay:10.37,2013-03-22 20:44:00,
2013-03-22 21:49:00,31.1,21.4,29.94,NW,315,4.6,4.6,67,0.00,CLR,,0.00,0.0,WeatherDisplay:10.37,2013-03-22 20:49:00,
2013-03-22 21:54:00,31.1,21.4,29.97,WNW,292,4.6,4.6,67,0.00,CLR,,0.00,0.0,WeatherDisplay:10.37,2013-03-22 20:54:00,
2013-03-22 21:59:00,31.3,21.6,29.97,WNW,292,3.5,3.5,67,0.00,CLR,,0.00,0.0,WeatherDisplay:10.37,2013-03-22 20:59:00,
2013-03-22 22:04:00,31.3,21.6,29.97,WNW,292,3.6,3.8,67,0.00,CLR,,0.00,0.0,WeatherDisplay:10.37,2013-03-22 21:04:00,
2013-03-22 22:09:00,31.5,21.8,30.00,WNW,292,4.6,4.6,67,0.00,CLR,,0.00,0.0,WeatherDisplay:10.37,2013-03-22 21:09:00,
2013-03-22 22:14:00,31.5,21.8,30.00,NW,315,4.9,4.9,67,0.00,CLR,,0.00,0.0,WeatherDisplay:10.37,2013-03-22 21:14:00,
2013-03-22 22:19:00,31.5,21.8,30.00,WNW,292,5.8,5.8,67,0.00,CLR,,0.00,0.0,WeatherDisplay:10.37,2013-03-22 21:19:00,
2013-03-22 22:24:00,31.5,21.8,29.97,NNW,338,4.6,4.6,67,0.00,CLR,,0.00,0.0,WeatherDisplay:10.37,2013-03-22 21:24:00,
2013-03-22 22:29:00,31.1,21.4,29.97,NW,315,4.6,4.6,67,0.00,CLR,,0.00,0.0,WeatherDisplay:10.37,2013-03-22 21:29:00,
2013-03-22 22:34:00,31.1,21.4,29.97,NNW,338,4.6,4.6,67,0.00,CLR,,0.00,0.0,WeatherDisplay:10.37,2013-03-22 21:34:00,
2013-03-22 22:39:00,30.9,21.2,29.97,NNW,338,4.6,4.6,67,0.00,CLR,,0.00,0.0,WeatherDisplay:10.37,2013-03-22 21:39:00,
2013-03-22 22:44:00,30.7,21.1,29.97,NW,315,3.5,3.5,67,0.00,CLR,,0.00,0.0,WeatherDisplay:10.37,2013-03-22 21:44:00,
2013-03-22 22:49:00,30.7,21.1,29.97,WNW,292,4.6,4.6,67,0.00,CLR,,0.00,0.0,WeatherDisplay:10.37,2013-03-22 21:49:00,
2013-03-22 22:54:00,30.4,20.7,30.00,NNW,338,3.5,3.5,67,0.00,CLR,,0.00,0.0,WeatherDisplay:10.37,2013-03-22 21:54:00,
2013-03-22 22:59:00,30.2,20.9,30.00,NW,315,3.5,3.5,68,0.00,CLR,,0.00,0.0,WeatherDisplay:10.37,2013-03-22 21:59:00,
2013-03-22 23:04:00,30.2,20.9,30.00,WNW,292,2.3,2.3,68,0.00,CLR,,0.00,0.0,WeatherDisplay:10.37,2013-03-22 22:04:00,
2013-03-22 23:09:00,30.0,20.7,29.97,North,0,2.3,2.6,68,0.00,CLR,,0.00,0.0,WeatherDisplay:10.37,2013-03-22 22:09:00,
2013-03-22 23:14:00,29.8,20.9,29.97,NNW,338,3.5,3.5,69,0.00,CLR,,0.00,0.0,WeatherDisplay:10.37,2013-03-22 22:14:00,
2013-03-22 23:19:00,29.8,21.2,29.97,NW,315,2.4,2.6,70,0.00,CLR,,0.00,0.0,WeatherDisplay:10.37,2013-03-22 22:19:00,
2013-03-22 23:24:00,29.7,21.4,30.00,WNW,292,1.2,0.0,71,0.00,CLR,,0.00,0.0,WeatherDisplay:10.37,2013-03-22 22:24:00,
2013-03-22 23:29:00,29.7,21.1,30.00,NNW,338,2.3,2.3,70,0.00,CLR,,0.00,0.0,WeatherDisplay:10.37,2013-03-22 22:29:00,
2013-03-22 23:34:00,29.5,21.2,30.00,WNW,292,2.3,2.3,71,0.00,CLR,,0.00,0.0,WeatherDisplay:10.37,2013-03-22 22:34:00,
2013-03-22 23:39:00,29.5,21.2,29.97,NNE,22,2.6,2.6,71,0.00,CLR,,0.00,0.0,WeatherDisplay:10.37,2013-03-22 22:39:00,
2013-03-22 23:44:00,29.3,21.1,29.97,NNE,22,3.6,3.6,71,0.00,CLR,,0.00,0.0,WeatherDisplay:10.37,2013-03-22 22:44:00,
2013-03-22 23:49:00,29.3,21.4,29.97,NNE,22,1.2,1.2,72,0.00,CLR,,0.00,0.0,WeatherDisplay:10.37,2013-03-22 22:49:00,
2013-03-22 23:54:00,29.3,21.4,30.00,NNW,338,3.5,3.5,72,0.00,CLR,,0.00,0.0,WeatherDisplay:10.37,2013-03-22 22:54:00,
2013-03-22 23:59:00,29.3,21.4,30.00,NNE,22,5.8,5.8,72,0.00,CLR,,0.00,0.0,WeatherDisplay:10.37,2013-03-22 22:59:00,